#timestamp,LO_Frequency,Hit,StdDev 
1670896815.2,286046999.6,N
1670896835.0,286046996.9,N
1670896835.9,286046996.9,N
1670896855.8,286046996.9,N
1670896875.6,286046998.8,N
1670896895.4,286046998.5,N
1670896915.3,286047001.2,N
1670896935.1,286047000.5,N
1670896955.9,286047001.0,N
1670896975.7,286046998.8,N
1670896995.5,286047000.7,N
1670897015.4,286047000.6,N
1670897035.2,286047002.6,N
1670897055.0,286047004.4,N
1670897056.0,286047004.4,N
1670897075.8,286047002.0,N
1670897095.6,286047002.2,N
1670897115.5,286047004.1,N
1670897135.3,286047002.2,N
1670897155.1,286047002.5,N
1670897175.9,286047000.9,N
1670897195.7,286047001.2,N
1670897215.6,286047000.8,N
1670897235.4,286046999.1,N
1670897255.2,286046995.1,N
1670897275.1,286046995.5,N
1670897276.0,286046995.5,N
1670897295.8,286046996.2,N
1670897315.7,286046996.8,N
1670897335.5,286046998.8,N
1670897355.4,286046998.7,N
1670897375.3,286046999.2,N
1670897395.1,286046998.4,N
1670897415.8,286046999.4,N
1670897435.7,286046998.3,N
1670897455.5,286046998.5,N
1670897475.4,286046998.6,N
1670897495.2,286046998.2,N
1670897515.0,286047000.9,N
1670897515.9,286047000.9,N
1670897535.8,286046999.9,N
1670897555.6,286046999.9,N
1670897575.5,286047002.8,N
1670897595.3,286047002.8,N
1670897615.1,286047002.3,N
1670897635.9,286047002.7,N
1670897655.7,286046999.8,N
1670897675.5,286046999.8,N
1670897695.4,286046999.9,N
1670897715.2,286047000.4,N
1670897735.1,286047000.2,N
1670897736.0,286047000.2,N
1670897755.8,286046998.1,N
1670897775.6,286047001.0,N
1670897795.5,286046998.8,N
1670897815.3,286046999.9,N
1670897835.1,286047000.6,N
1670897855.9,286047000.3,N
1670897875.7,286047002.1,N
1670897895.6,286047002.5,N
1670897915.4,286047002.7,N
1670897935.2,286047000.0,N
1670897955.1,286047002.8,N
1670897956.0,286047002.8,N
1670897975.8,286047001.6,N
1670897995.7,286047001.7,N
1670898015.5,286047002.7,N
1670898035.3,286047001.9,N
1670898055.2,286047001.6,N
1670898075.0,286047002.5,N
1670898075.9,286047002.5,N
1670898095.7,286046999.7,N
1670898115.6,286047001.0,N
1670898135.4,286047002.4,N
1670898155.3,286047001.3,N
1670898175.1,286047001.6,N
1670898176.0,286047001.6,N
1670898195.8,286047002.7,N
1670898215.7,286047000.3,N
1670898235.5,286047002.5,N
1670898255.3,286047000.6,N
1670898275.2,286047002.2,N
1670898295.0,286047002.2,N
1670898295.9,286047002.2,N
1670898315.8,286047002.0,N
1670898335.6,286047002.2,N
1670898355.4,286047002.3,N
1670898375.3,286047002.3,N
1670898395.1,286047000.6,N
1670898415.9,286046999.9,N
1670898435.7,286047002.8,Y
1670898455.5,286047001.1,P
1670898475.4,286046998.1,P
1670898495.2,286046999.7,N
1670898515.0,286046999.9,N
1670898515.9,286046999.9,N
1670898535.8,286046999.7,N
1670898555.6,286047002.1,N
1670898575.5,286047004.0,Y
1670898595.3,286047002.0,P
1670898615.1,286047001.3,N
1670898635.9,286047001.6,N
1670898655.7,286047004.3,Y
1670898675.6,286047002.2,P
1670898695.4,286047001.4,P
1670898715.2,286047004.0,P
1670898735.1,286047002.0,N
1670898736.0,286047002.0,N
1670898755.8,286047000.0,N
1670898775.7,286047001.6,N
1670898795.3,286047001.9,N
1670898815.1,286047004.4,Y
1670898835.9,286047000.0,P
1670898855.7,286047000.3,N
1670898875.5,286046998.1,N
1670898895.4,286047002.4,N
1670898915.2,286046999.9,N
1670898935.1,286046998.1,N
1670898936.0,286046998.1,N
1670898955.8,286046998.4,N
1670898975.6,286046998.3,N
1670898995.5,286046997.0,N
1670899015.3,286046997.2,N
1670899035.2,286046999.2,N
1670899055.9,286046996.8,N
1670899075.7,286046996.7,N
1670899095.6,286046996.9,N
1670899115.4,286046996.9,N
1670899135.2,286046999.4,N
1670899155.1,286046999.0,N
1670899156.0,286046999.0,N
1670899175.8,286046998.8,N
1670899195.7,286046998.5,N
1670899215.5,286046998.7,N
1670899235.3,286046998.5,N
1670899255.2,286047000.7,N
1670899275.0,286046999.9,N
1670899275.9,286046999.9,N
1670899295.8,286047000.0,N
1670899315.6,286047000.7,N
1670899335.4,286046998.5,N
1670899355.3,286046998.6,N
1670899375.1,286046998.3,N
1670899395.9,286046998.4,N
1670899415.7,286046998.2,N
1670899435.5,286046998.5,N
1670899455.4,286047000.3,N
1670899475.2,286047002.7,N
1670899495.0,286047002.8,N
1670899495.9,286047002.8,N
1670899515.8,286047002.4,N
1670899535.6,286047000.2,N
1670899555.5,286047002.4,N
1670899575.3,286047002.4,N
1670899595.1,286047002.3,N
1670899615.9,286047002.1,N
1670899635.7,286047002.0,N
1670899655.6,286047002.3,N
1670899675.4,286046999.7,N
1670899695.2,286047002.6,N
1670899715.1,286047002.7,N
1670899716.0,286047002.7,N
1670899735.8,286047002.3,N
1670899755.6,286047002.2,N
1670899775.5,286046999.7,N
1670899795.3,286047002.5,N
1670899815.2,286047002.6,N
1670899835.9,286047002.1,N
1670899855.7,286047002.7,N
1670899875.6,286047002.2,N
1670899895.4,286047002.2,N
1670899915.2,286047002.5,N
1670899935.1,286047002.1,N
1670899936.0,286047002.1,N
1670899955.8,286047001.5,N
1670899975.7,286047002.0,N
1670899995.5,286047002.5,N
1670900015.3,286047002.6,Y
1670900035.2,286046999.4,P
1670900055.9,286046998.6,N
1670900075.7,286046998.9,N
1670900095.6,286046998.3,N
1670900115.4,286046998.2,N
1670900135.3,286047000.7,N
1670900155.1,286047000.1,N
1670900156.0,286047000.1,N
1670900175.8,286047002.6,N
1670900195.7,286047002.0,N
1670900215.5,286047002.2,N
1670900235.3,286047002.1,N
1670900255.2,286047001.5,N
1670900275.0,286046999.8,N
1670900275.9,286046999.8,N
1670900295.8,286047002.0,N
1670900315.6,286047002.3,N
1670900335.4,286047002.4,N
1670900355.3,286047002.8,N
1670900375.1,286046999.8,N
1670900395.8,286047000.0,N
